Location: Newark
(42.7133°N, 87.7910°W)
Time: 09:08:40
(UTC+00:00)

Tiros 1 - Pass Details

Date: 21 October 2019
Orbit: 630 x 664 km, 48.4° (Epoch: 12 November)

Event Time Altitude Azimuth Distance (km) Brightness Sun altitude
Exits shadow 10:24:35 31° 319° (NW) 1,151 8.1 -20.3°
Maximum altitude 10:26:14 43° 6° (N) 934 8.0 -20.0°
Drops below altitude 10° 10:30:49 10° 78° (ENE) 2,082 11.0 -19.1°
Sets 10:33:17 0° 85° (E) 2,993 12.3 -18.7°
